Malaga, Spain

11:49 PM CEST on August 17, 2017 (GMT +0200)
Malaga

Weather History for LEMG - October, 2012

Change the Weather History Date:

Monday, October 22, 2012

  Actual Average Record
Temperature  
Mean Temperature 66 °F -  
Max Temperature 72 °F 66 °F 97 °F (2014)
Min Temperature 59 °F 52 °F 51 °F (1998)
Growing Degree Days 16 (Base 50)    
Moisture  
Dew Point 58 °F    
Average Humidity 82    
Maximum Humidity 100    
Minimum Humidity 64    
Precipitation  
Precipitation 0.00 in 0.13 in - ()
Sea Level Pressure  
Sea Level Pressure 30.05 in    
Wind  
Wind Speed 4 mph ()    
Max Wind Speed 10 mph    
Max Gust Speed -    
Visibility 7.0 miles    
Events      
Averages and records for this station are not official NWS values.
T = Trace of Precipitation, MM = Missing Value Source: Averaged Metar Reports

Daily Weather History Graph

Daily Weather History Graph

Search for Another Location

Airport or City:

Trip Planner

Search our weather history database for the weather conditions in past years. The results will help you decide how hot, cold, wet, or windy it might be!

Date:

Astronomy

Oct. 22, 2012 Rise Set
Actual Time 8:32 AM CEST 7:32 PM CEST
Civil Twilight 8:05 AM CEST 7:58 PM CEST
Nautical Twilight 7:35 AM CEST 8:28 PM CEST
Astronomical Twilight 7:05 AM CEST 8:58 PM CEST
Moon 3:20 PM CEST (10/22) 1:14 AM CEST (10/22)
Length of Visible Light 11h 52m
Length of Day
11h 00m
First Quarter, 53% of the Moon is Illuminated
Oct 22
First Quarter
Oct 29
Full
Nov 7
Last Quarter
Nov 13
New
Nov 20
First Quarter

Hourly Weather History & Observations

Time (CEST) Temp. Dew Point Humidity Pressure Visibility Wind Dir Wind Speed Gust Speed Precip Events Conditions
12:00 AM 64.4 °F 55.4 °F 73% 30.04 in 6.2 mi West 2.3 mph - N/A   Mostly Cloudy
1:00 AM 60.8 °F 55.4 °F 82% 30.04 in 6.2 mi NW 1.2 mph - N/A   Scattered Clouds
1:30 AM 60.8 °F 55.4 °F 82% 30.04 in 6.2 mi WNW 2.3 mph - N/A   Partly Cloudy
2:00 AM 63 °F 55 °F 69% 30.04 in 16 mi West 1.2 mph - -   Partly Cloudy
2:00 AM 60.8 °F 55.4 °F 82% 30.04 in 6.2 mi Variable 1.2 mph - N/A   Scattered Clouds
2:30 AM 60.8 °F 55.4 °F 82% 30.04 in 6.2 mi WNW 1.2 mph - N/A   Mostly Cloudy
3:00 AM 62.6 °F 55.4 °F 77% 30.04 in 6.2 mi WNW 6.9 mph - N/A   Mostly Cloudy
3:30 AM 60.8 °F 55.4 °F 82% 30.04 in 6.2 mi West 4.6 mph - N/A   Scattered Clouds
4:00 AM 60.8 °F 55.4 °F 82% 30.04 in 6.2 mi WNW 4.6 mph - N/A   Scattered Clouds
4:30 AM 59.0 °F 55.4 °F 88% 30.04 in 6.2 mi WNW 3.5 mph - N/A   Scattered Clouds
5:00 AM 60.8 °F 55.4 °F 82% 30.04 in 6.2 mi WNW 3.5 mph - N/A   Scattered Clouds
5:30 AM 60.8 °F 55.4 °F 82% 30.04 in 6.2 mi West 4.6 mph - N/A   Scattered Clouds
6:30 AM 59.0 °F 55.4 °F 88% 30.04 in 6.2 mi WNW 4.6 mph - N/A   Scattered Clouds
7:00 AM 59.0 °F 55.4 °F 88% 30.04 in 6.2 mi WNW 5.8 mph - N/A   Partly Cloudy
7:30 AM 57.2 °F 55.4 °F 94% 30.04 in 6.2 mi WNW 4.6 mph - N/A   Partly Cloudy
8:00 AM 61 °F 56 °F 77% 30.04 in 12 mi NW 5.8 mph - -   Scattered Clouds
8:30 AM 59.0 °F 55.4 °F 88% 30.04 in 6.2 mi NW 3.5 mph - N/A   Scattered Clouds
9:00 AM 60.8 °F 57.2 °F 88% 30.04 in 6.2 mi NW 2.3 mph - N/A   Scattered Clouds
11:00 AM 69.8 °F 57.2 °F 64% 30.06 in 6.2 mi Variable 1.2 mph - N/A   Partly Cloudy
12:30 PM 68.0 °F 59.0 °F 73% 30.06 in 6.2 mi ESE 9.2 mph - N/A   Partly Cloudy
1:30 PM 68.0 °F 60.8 °F 78% 30.06 in 6.2 mi ESE 9.2 mph - N/A   Partly Cloudy
2:00 PM 69 °F 59 °F 64% 30.08 in 25 mi ESE 10.4 mph - -   Scattered Clouds
2:30 PM 68.0 °F 59.0 °F 73% 30.06 in 6.2 mi SE 9.2 mph - N/A   Partly Cloudy
4:30 PM 68.0 °F 60.8 °F 78% 30.04 in 6.2 mi SE 8.1 mph - N/A   Partly Cloudy
5:00 PM 68.0 °F 60.8 °F 78% 30.04 in 6.2 mi SE 9.2 mph - N/A   Partly Cloudy
5:30 PM 68.0 °F 60.8 °F 78% 30.04 in 6.2 mi SE 8.1 mph - N/A   Partly Cloudy
6:00 PM 68.0 °F 60.8 °F 78% 30.04 in 6.2 mi SE 6.9 mph - N/A   Partly Cloudy
6:30 PM 68.0 °F 60.8 °F 78% 30.04 in 6.2 mi ESE 5.8 mph - N/A   Partly Cloudy
7:00 PM 66.2 °F 60.8 °F 83% 30.04 in 6.2 mi ESE 4.6 mph - N/A   Partly Cloudy
7:30 PM 64.4 °F 60.8 °F 88% 30.04 in 6.2 mi ESE 2.3 mph - N/A   Partly Cloudy
8:00 PM 66 °F 61 °F 78% 30.05 in 19 mi SSE 2.3 mph - -   Scattered Clouds
8:00 PM 64.4 °F 60.8 °F 88% 30.04 in 6.2 mi SSE 2.3 mph - N/A   Partly Cloudy
8:30 PM 64.4 °F 60.8 °F 88% 30.04 in 6.2 mi SE 2.3 mph - N/A   Partly Cloudy
9:00 PM 64.4 °F 60.8 °F 88% 30.06 in 6.2 mi SE 3.5 mph - N/A   Partly Cloudy
9:30 PM 64.4 °F 60.8 °F 88% 30.06 in - ESE 3.5 mph - N/A   Clear
10:00 PM 62.6 °F 62.6 °F 100% 30.06 in - SE 3.5 mph - N/A   Clear
10:30 PM 64.4 °F 62.6 °F 94% 30.09 in - SE 3.5 mph - N/A   Clear
11:00 PM 64.4 °F 62.6 °F 94% 30.09 in - SE 4.6 mph - N/A   Clear
11:30 PM 62.6 °F 62.6 °F 100% 30.09 in 6.2 mi SE 3.5 mph - N/A   Partly Cloudy